Regional Weather Roundup
Issued by NWS Wakefield, VA

Home | Current Version | Previous Version | Graphics & Text | Print | Product List | Glossary On
Versions: 1 2 3 4 5 6 7 8 9 10 11 12 13 14 15 16 17 18 19 20 21 22 23 24 25 26 27
000
ASUS41 KAKQ 190710
RWRAKQ

REGIONAL WEATHER ROUNDUP
NATIONAL WEATHER SERVICE WAKEFIELD VA
300 AM EDT SAT APR 19 2014

Note: "fair" indicates few or no clouds below 12,000 feet with no
significant weather and/or obstructions to visibility. * = Denotes
station may not report precipitation (e.g., rain,snow,etc.),
thunder or fog.

VAZ042-051-052>054-056-190800-
NORTHERN VIRGINIA

CITY           SKY/WX    TMP DP  RH WIND       PRES   REMARKS
WASH NATIONAL  CLOUDY    48  38  68 S6        30.26F
DULLES         CLOUDY    41  36  82 CALM      30.25F
FORT BELVOIR   CLOUDY    41  39  90 CALM      30.25F
QUANTICO       CLOUDY    45  39  79 NW6       30.26F
FREDERICKSBRG* CLOUDY    45  41  87 CALM      30.24F
STAFFORD*      CLOUDY    41  41 100 CALM      30.28F
WARRENTON      CLOUDY    41  41 100 CALM      30.23F
CULPEPER*      CLOUDY    43  43 100 CALM      30.24F
MANASSAS*      CLOUDY    43  41  93 CALM      30.25F
LEESBURG*      CLOUDY    45  37  76 CALM      30.26S
WINCHESTER     CLOUDY    43  36  75 CALM      30.23S
$$

VAZ048-049-060>072-079>083-190800-
CENTRAL AND SOUTH CENTRAL VIRGINIA...AND NORTH CENTRAL NORTH CAROLINA

CITY           SKY/WX    TMP DP  RH WIND       PRES   REMARKS
RICHMOND       CLOUDY    46  41  82 E3        30.23F
CHESTERFIELD*  NOT AVBL
HANOVER        CLOUDY    45  41  86 CALM      30.26F
TAPPAHANNOCK*  CLOUDY    45  41  85 CALM      30.24F
CHARLOTTSVILLE CLOUDY    45  38  76 CALM      30.22F
ORANGE*        CLOUDY    43  41  93 CALM      30.24F
LOUISA*        CLOUDY    41  37  87 CALM      30.22F
FARMVILLE*     CLOUDY    46  39  76 CALM      30.20F
SOUTH HILL*    LGT RAIN  46  46 100 N3        30.26F
ROANOKE RAPIDS RAIN      46  45  93 NE3       30.21F
RALEIGH        RAIN      48  45  89 NE9       30.19S FOG
$$

VAZ088>098-190800-
SOUTHEAST VIRGINIA

CITY           SKY/WX    TMP DP  RH WIND       PRES   REMARKS
NORFOLK        CLOUDY    47  42  83 N8        30.22F
VIRGINIA BEACH CLOUDY    46  42  86 N7        30.21F
NORFOLK NAVAL  LGT RAIN  48  43  82 N12       30.23F
WEST POINT*    CLOUDY    47  42  82 CALM      30.26S
NEWPORT NEWS   CLOUDY    49  42  77 E5        30.24F
LANGLEY AFB    DRIZZLE   46  46 100 NE5       30.23F
FORT EUSTIS    CLOUDY    46  44  90 E3        30.22F
WILLIAMSBURG*  CLOUDY    48  45  87 CALM      30.24F
FRANKLIN*      CLOUDY    46 N/A N/A CALM      30.22F
WAKEFIELD      LGT RAIN  47  43  86 CALM      30.23F
$$

VAZ020-022-025-037-045-190800-
WESTERN AND SOUTHWEST VIRGINIA

CITY           SKY/WX    TMP DP  RH WIND       PRES   REMARKS
STAUNTON*      CLOUDY    42  38  84 CALM      30.23F
HOT SPRINGS VA CLOUDY    48  28  46 NW7       30.25F
LYNCHBURG      CLOUDY    49  41  74 CALM      30.23F
DANVILLE       LGT RAIN  48  43  82 NE8       30.20F
MARTINSVILLE   LGT RAIN  47  44  89 N3        30.22F
ROANOKE        CLOUDY    47  40  76 CALM      30.23F
BLACKSBURG     CLOUDY    45  43  93 CALM      30.22F
DUBLIN*        CLOUDY    44  40  87 CALM      30.21F
MARION*        CLOUDY    45  38  77 NE3       30.21F
HILLSVILLE*    CLOUDY    46  37  71 CALM      30.22F
RICHLANDS*     CLOUDY    55  33  42 NE7       30.18F
WISE*          CLOUDY    52  32  46 NE3       30.18F
ABINGDON*      CLOUDY    53  34  49 E6        30.17F
$$

MDZ021>025-VAZ099-100-190800-
SOUTHERN MARYLAND AND THE DELMARVA PENINSULA

CITY           SKY/WX    TMP DP  RH WIND       PRES   REMARKS
PATUXENT RIVER CLOUDY    44  40  85 CALM      30.25F
BAY BRIDGE APT CLOUDY    45  43  93 CALM      30.25F
LEONARDTOWN    CLOUDY    43  39  87 CALM      30.26F
DOVER          CLOUDY    41  41 100 S5        30.22F
GEORGETOWN     CLOUDY    43  38  82 CALM      30.26F
EASTON         CLOUDY    46  43  91 CALM      30.29F
CAMBRIDGE      CLOUDY    45  39  81 CALM      30.25F
SALISBURY      CLOUDY    44  40  85 CALM      30.26F
OCEAN CITY     CLOUDY    43  40  89 N5        30.26F
WALLOPS ISLAND CLOUDY    45  42  89 CALM      30.26F
ACCOMACK*      CLOUDY    43  39  87 CALM      30.24F
$$

NCZ012>017-030>032-190800-
EASTERN NORTH CAROLINA

CITY           SKY/WX    TMP DP  RH WIND       PRES   REMARKS
ELIZABETH CITY CLOUDY    47  43  86 NE7       30.21F
AHOSKIE*       CLOUDY    46  41  83 N6        30.21F
EDENTON*       CLOUDY    46  44  90 NE6       30.20F
CURRITUCK*     CLOUDY    47  44  88 NE5       30.22F
KILL DEVIL HLS CLOUDY    47  46  93 N8        30.18F
MANTEO         CLOUDY    47  46  95 NE14G21   30.19F
CAPE HATTERAS  CLOUDY    51  51 100 NE14      30.13F FOG
GOLDSBORO      LGT RAIN  48  47  98 NE7       30.15S
WASHINGTON     CLOUDY    47  43  85 N9        30.17F
GREENVILLE     DRIZZLE   46  45  93 NE7       30.18F
NEW BERN       LGT RAIN  52  48  87 N8        30.15F
WILMINGTON     HVY RAIN  53  51  93 NE21      30.05F FOG
$$

VAZ048-190800-
ELSEWHERE

CITY           SKY/WX    TMP DP  RH WIND       PRES   REMARKS
HARRISBURG PA  CLOUDY    42  34  73 CALM      30.25F
BALTIMORE      CLOUDY    43  36  76 CALM      30.24F
ANNAPOLIS      CLOUDY    45  39  79 CALM      30.25F
ANDREWS AFB    CLOUDY    42  37  82 S3        30.24F
WILMINGTON DE  CLOUDY    42  38  85 S5        30.26F
PHILADELPHIA   CLOUDY    43  36  76 SW7       30.27F
WILDWOOD NJ*   CLOUDY    39  36  87 CALM      30.27F
ATLANTIC CITY  CLOUDY    38  35  89 CALM      30.26F
HENDERSON NC   LGT RAIN  46  45  95 NE6       30.20F
GREENSBORO     LGT RAIN  47  44  90 NE8       30.17F FOG
ROCKY MOUNT    CLOUDY    49  44  83 NE5       30.20F
FAYETTEVILLE   LGT RAIN  52  49  89 NE14G22   30.10F
CHARLOTTE      RAIN      48  47  96 N13G20    30.13F FOG
$$

VAZ100-190800-
MARINE

STATION/POSITION TIME  TEMP    WIND        PRES    WAVE   SWELL
                       AIR SEA DIR/SP/G            HT/PER HT/PER
                 (UTC) (F)     (DEG/KT/KT) (MB)    (FT/S) (FT/S)
44066 TX TWR #4  0700   41 44  300/  4/ 10 1024.5F   7/11   7/11
CAPE MAY NJ      0700   42 53  170/  2/  3 1024.5F
LEWES DE         0700   43 49  270/  2/  2 1024.1F
15NM E FENWICK I 0700   43 45              1024.8F   5/10
OCEAN-CITY-INLET 0700   43 47  330/  2/  3 1024.4S
WACHAPREAGUE VA  0700   45 52   20/  6/  8 1023.6F
THOMAS POINT MD  0700   48 52  250/  3/  4 1024.9F
GOOSES REEF MD   0700   48     240/  4/  6 1025.8F
COVE POINT MD    0700   46     210/  3/  4 1024.3F
SOLOMONS ISLAND  0700      51                N/A
BISHOPS HEAD MD  0700   47 54   CALM  /  1 1024.0F
PINEY POINT MD   0700          190/  2/  3   N/A
POTOMAC MD       0700   47     180/  2/  4 1023.8S
CAMBRIDGE MD     0700   45 55  200/  2/  5 1024.0F
LEWISETTA VA     0700   46 53  150/  2/  2 1024.0F
RAPPAHANNOCK LGT 0700           20/  5/  6 1024.5S
STINGRAY PT      0700   46      50/  4/  6 1024.0S
YORK RVR RNG VA  0700   46      80/  4/  5 1023.4F
YORKTOWN VA      0700   47 54   80/  4/  5 1023.8S
JAMESTOWN VA     0700   46      60/  4/  6   N/A
DOMINION TERM VA 0700   47      10/  5/  7 1023.6F
KIPTOPEKE VA     0700      52   10/  5/  6   N/A
CHES BAY BRIDGE  0700   46 51  360/ 12/ 14 1023.3F
CAPE HENRY VA    0700   45      10/ 10/ 12   N/A
CHESAPEAKE LGHT  0600   45      20/  9/ 10 1024.4F
WILLOUBY STN VA  0700   46      20/  9/ 10 1022.6F
S CRANEY ISL VA  0700          360/  8/ 10 1023.5F
CAPE HENRY BUOY  0700      47                N/A     4/12   2/12
1ST LANDING BUOY 0700      45                N/A     4/11   3/11
64NM E OF VA BCH 0700   48 49   10/ 14/ 16 1022.1F   6/11   5/11
DUCK PIER NC     0700   47 49   10/ 12/ 14 1021.8F
44100 DUCK FRF   0700      48                N/A     6/11   3/11
44056 DUCK FRF   0700      48                N/A     5/10   2/11
OREGON INLET NC  0700   48 53  360/ 12/ 17 1021.4F
HATTERAS NC      0700   53 57   30/ 12/ 15 1020.3F
CAPE LOOKOUT NC  0600   55      30/ 23/ 27 1019.5F
FRYING PAN SHLS  0700   68 65  110/ 19/ 25 1013.7F   9/ 7
$$



USA.gov is the U.S. government's official web portal to all federal, state and local government web resources and services.